Regional Weather Roundup
Issued by NWS

Home | Current Version | Previous Version | Text Only | Print | Product List | Glossary On
Versions: 1 2 3 4 5 6 7 8 9 10 11 12 13 14 15 16 17 18 19 20 21 22 23 24 25 26 27 28 29 30 31 32 33 34 35 36 37 38 39 40 41 42 43 44 45 46 47 48 49 50
000
ASHW40 PHFO 261010
RWRHI

WEATHER ROUNDUP FOR HAWAII
NATIONAL WEATHER SERVICE HONOLULU HI
1200 AM HST WED NOV 26 2014

THIS IS AN AUTOMATED REPORT THAT HAS NOT BEEN QUALITY CONTROLLED.

NOTE..."FAIR" INDICATES FEW OR NO CLOUDS BELOW 12,000 FEET WITH NO
SIGNIFICANT WEATHER AND/OR OBSTRUCTIONS TO VISIBILITY.

* - THESE SITES REPORT LIMITED FIELDS

HIZ001>004-261100-
KAUAI-NIIHAU-

CITY           SKY/WX    TMP DP  RH WIND       PRES   REMARKS
LIHUE APT      CLOUDY    73  55  53 NE17G24   30.09F
PORT ALLEN*      N/A     72 N/A N/A NE9G20      N/A
POIPU*           N/A     73 N/A N/A N7G20       N/A
PRINCEVILLE*     N/A     72 N/A N/A MISG        N/A
KOKOLE POINT*  NOT AVBL
MOLOAA DAIRY*  NOT AVBL
WAIMEA HTS*    NOT AVBL
PUU OPAE*      NOT AVBL
PUU LUA*       NOT AVBL
MAKAHA RIDGE*  NOT AVBL
$$

HIZ005>011-261100-
OAHU-

CITY           SKY/WX    TMP DP  RH WIND       PRES   REMARKS
HONOLULU       PTCLDY    72  58  61 NE8       30.05F
KALAELOA       CLEAR     67  58  72 VRB3      30.07S
KANEOHE MCB    MOCLDY    73  59  61 NE9       30.07S
WHEELER FIELD  CLOUDY    68  58  69 N6        30.07F
BELLOWS*       NOT AVBL
KAHUKU*        NOT AVBL
WHEELER*       NOT AVBL
WAIANAE HARBOR NOT AVBL
DILLINGHAM*      N/A     70  57  64 E3          N/A
KAHUKU TRN*      N/A     70  55  60 E7G17       N/A
KAWAILOA*        N/A     66  54  63 NE7G13      N/A
KII*             N/A     73  59  60 E14G20      N/A
MAKUA RANGE*     N/A     72  57  60 E2G12       N/A
OAHU FOREST NW NOT AVBL
SCHOFIELD BRK*   N/A     64  57  77 CALM        N/A
SCHOFIELD S*   NOT AVBL
WAIANAE VLY*   NOT AVBL
KUAOKALA*      NOT AVBL
HONOULIUULI*   NOT AVBL
MOKUOLOE IS*     N/A    N/A N/A N/A MISG        N/A
PALEHUA*       NOT AVBL
WAIAWA PHB*    NOT AVBL
$$

HIZ012>013-261100-
MOLOKAI-

CITY           SKY/WX    TMP DP  RH WIND       PRES   REMARKS
MOLOKAI AIRPT  CLEAR     71  60  68 NE10      30.06F
KALAUPAPA      NOT AVBL
MAKAPULAPAI*   NOT AVBL
MOLOKAI 1*     NOT AVBL
PUU ALII*      NOT AVBL
$$

HIZ016-261100-
KAHOOLAWE-

CITY           SKY/WX    TMP DP  RH WIND       PRES   REMARKS
KAHOOLAWE*     NOT AVBL
HAKIOAWA*      NOT AVBL
HONOKANAIA*      N/A     73  64  73 VRB13G26  30.06S
KANELOA*         N/A     72  63  73 NE13G26   29.27S
KEALIALALO*    NOT AVBL
LUA MAKIKA*    NOT AVBL
$$

HIZ014>015-261100-
LANAI-

CITY           SKY/WX    TMP DP  RH WIND       PRES   REMARKS
LANAI CITY       N/A    N/A N/A N/A MISG        N/A
LANAI 1*       NOT AVBL
$$

HIZ017>028-261100-
MAUI-

CITY           SKY/WX    TMP DP  RH WIND       PRES   REMARKS
KAHULUI        CLOUDY    71  63  75 NE8       30.08S
KAPALUA-W MAUI NOT AVBL
HANA AIRPORT   CLOUDY    66  64  94 SW6       30.10S
HANA*          NOT AVBL
HALEAKALA SUMM   N/A     46  -6  11 W16         N/A
MAALAEA BAY*   NOT AVBL
HALEAKALA*     NOT AVBL
KAUPO GAP*     NOT AVBL
KULA 1*          N/A    N/A N/A N/A E3          N/A
$$

HIZ023>026-261100-
BIG ISLAND OF HAWAII COAST AND LOWER SLOPES-

CITY           SKY/WX    TMP DP  RH WIND       PRES   REMARKS
KAILUA KONA    MOCLDY    75  66  73 NE5       29.99F
HILO           CLOUDY    65 N/A N/A W6        30.07F
HONOKAA*       NOT AVBL
KAWAIHAE MWT*  NOT AVBL
KAWAIHAE*        N/A     79 N/A N/A W6          N/A
SOUTH POINT*   NOT AVBL
UPOLU AIRPORT* NOT AVBL
KAMUELA*       SUNNY     61  61 100 N17       30.13S FOG
HAKALAU*         N/A     50  49  97 W3          N/A
KALOKO-HONOKO* NOT AVBL
PALI 2*          N/A     64  59  82 N15G24      N/A
KEALAKOMO*       N/A     75  64  69 N18G31      N/A
KAUPULEHU*     NOT AVBL
KAPAPALA*        N/A     61  59  93 N1G8        N/A
LOWER KAHUKU*  NOT AVBL
PUHE CS*       NOT AVBL
PUHO CS*       NOT AVBL
PTA KEAMUKU*     N/A     57  54  88 E3G15       N/A
WAIKOLOA*      NOT AVBL
$$

HIZ027>028-261100-
BIG ISLAND OF HAWAII INTERIOR AND SUMMMITS-

CITY           SKY/WX    TMP DP  RH WIND       PRES   REMARKS
BRADSHAW FIELD CLOUDY    45  33  64 SE5       30.35S
MK VISITOR CEN NOT AVBL
MAUNA KEA*       N/A     39 -11  11 NW6         N/A
MAUNA LOA*       N/A     45  -2  14 MISG        N/A
MAUNA LOA 1*   NOT AVBL
PTA KIPUKA*      N/A     45  36  70 E3          N/A
PTA RANGE 17*    N/A     54  50  87 E7G14       N/A
PTA WEST*        N/A     54  50  87 SE7G14      N/A
NENE CABIN*    NOT AVBL
AHUMOA*        NOT AVBL
PTA PORTABLE*  NOT AVBL
PUU MALI*      NOT AVBL
$$

HIC003-261100-
NORTHWEST ISLANDS-

CITY           SKY/WX    TMP DP  RH WIND       PRES   REMARKS
MIDWAY ISLAND  MOCLDY    70  70 100 CALM      30.14S
MIDWAY NOS*    NOT AVBL
FRENCH FRIGATE NOT AVBL
$$

PHZ110>124-180-261100-
BUOY REPORTS

STATION/POSITION TIME  TEMP    WIND        PRES    WAVE   SWELL
                       AIR SEA DIR/SP/G            HT/PER HT/DIR
                 (UTC) (F)     (DEG/KT/KT) (MB)    (FT/S) (FT/D)
BUOY 51001       NOT AVBL
BUOY 51101       1000   71 77   40/ 14/ 17 1020.6F   8/ 8   7/350
BUOY 51100       1000   73 77   50/ 10/ 12 1018.8F
BUOY 51003       0900   77 80   50/ 19/ 23 1016.4F   9/ 9   7
BUOY 51004       0926   75 80   60/ 16/ 23 1014.9F  10/11
BARBERS PT BUOY  NOT AVBL
WAIMEA BAY BUOY  1000      79                N/A     8/12
KAILUA BAY BUOY  1000      79                N/A     7/10   3/350
LANAI BUOY       1000      79                N/A     3/13   2/250
BARBERS PT 2     1000      78                N/A     4/13   3/310
PAUWELA MAUI     1000      79                N/A    10/ 9   5/340
HILO             1000      80                N/A     8/10   3/ 10
KANEOHE BAY BUOY 1000      78                N/A     7/11   3
HANALEI KAUAI    NOT AVBL
KAHULUI HARBOR   1000   72 78   70/  5/  9 1018.4F
HONOLULU HARBOR  1000   74      70/  7/ 13 1017.9F
KILO NALU        NOT AVBL
HILO HARBOR      1000   69     250/  7/  8 1017.6F
MOKUOLOE         1000      76              1018.4F
NAWILIWILI       1000      79                N/A
WHOTS BUOY       NOT AVBL
BUOY 51028       NOT AVBL
$$

......................KEY........................................
  SKY/WX - SKY CONDITIONS/PRESENT WEATHER
  TMP    - TEMPERATURE IN FAHRENHEIT
  DWPT   - DEWPOINT IN FAHRENHEIT
  RH     - RELATIVE HUMIDITY IN PERCENT
  WIND   - DIRECTION AND SPEED /MPH FOR ISLANDS...KTS FOR BUOYS/
  PRES   - MEAN SEA LEVEL PRESSURE IN INCHES OF HG
  VSB    - VISIBILITY IN MILES
  HX     - HEAT INDEX
  WCI    - WIND CHILL INDEX
  VRB    - VARIABLE WIND DIRECTION
  N/A    - NOT AVAILABLE



USA.gov is the U.S. government's official web portal to all federal, state and local government web resources and services.